JILIN-01-09 (43943 NORAD) Tracking and Keplerian Element Data

This shows tracking and keplerian element data for the satellite.

Feedback or suggestion? Click here.




ElementValue
Catalog43943
NameJILIN-01-09
Epoch Orbit433
Epoch Day49.96317505
Epoch Year2019
RAAN148.5751
Inclination97.5118
Eccentricity0.001454
Argument of Perigee181.6623
Mean Anonmoly296.0844
Mean Motion15.11739318
Decay Rate-5.9E-07
L11 43943U 19005B 19049.96317505 -.00000059 00000-0 34748-6 0 9994
L22 43943 97.5118 148.5751 0014540 181.6623 296.0844 15.11739318 4330

Live tracking and technical data element details for JILIN-01-09 (NORAD 43943). JILIN-01-09 can be tracked NOW for your location showing map with azimuth and elevation plus other details from your city location.

Track the satellite on the map from your city or location and see movement details for azimuth, elevation, latitude, longitude, range, height, and movement on the map or in text.







IsCatalogInMostPopularTable: catalog: 43943, numindb: 16
Update: records affected: 1



GetName: 43943 JILIN-01-09

Hit Count: updated at: Thu, 21 Feb 2019 12:55:40 GMT